Regional Weather Roundup
Issued by NWS Sioux Falls, SD

Home | Current Version | Previous Version | Graphics & Text | Print | Product List | Glossary Off
Versions: 1 2 3 4 5 6 7 8 9 10 11 12 13 14 15 16 17 18 19 20 21 22 23 24 25 26 27 28 29 30 31 32 33 34 35 36 37 38 39 40 41 42 43 44 45 46 47 48 49 50

000
ASUS43 KFSD 231510
RWRFSD

WEATHER ROUNDUP FOR SE SOUTH DAKOTA/SW MINNESOTA/NW IOWA
NATIONAL WEATHER SERVICE SIOUX FALLS SD
1000 AM CDT SAT AUG 23 2014

NOTE: "FAIR" INDICATES FEW OR NO CLOUDS BELOW 12,000 FEET WITH NO
SIGNIFICANT WEATHER AND OR OBSTRUCTIONS TO VISIBILITY.


SDZ038>040-050-052>070-231600-
SOUTHEAST SOUTH DAKOTA

CITY           SKY/WX    TMP DP  RH WIND       PRES   REMARKS
CHAMBERLAIN    CLOUDY    69  67  93 SE13G20   29.84F
HURON          LGT RAIN  70  68  93 E3        29.88S
MADISON        PTSUNNY   68  68 100 SE7       29.93R
MITCHELL       CLOUDY    72  69  90 SE10      29.89S
SIOUX FALLS    CLOUDY    72  69  90 E13       29.92R
WINNER         FAIR      73  67  81 SE20      29.83F
YANKTON        CLOUDY    70  68  94 SE10      29.90S
$$

MNZ071-072-080-081-089-090-097-098-231600-
SOUTHWEST MINNESOTA

CITY           SKY/WX    TMP DP  RH WIND       PRES   REMARKS
FAIRMONT       CLOUDY    57 N/A N/A SE6       29.94S
JACKSON        CLOUDY    70  68  94 E16G25    29.92F
LUVERNE        CLOUDY    72  68  88 SE12      29.93R
MARSHALL       CLOUDY    70  66  88 E7        29.93R
MONTEVIDEO     CLOUDY    70  70 100 SE12      29.96R
PIPESTONE      LGT RAIN  72  66  83 SE7       29.93R
REDWOOD FALLS  CLOUDY    69  68  96 E5        29.94R FOG
TRACY          CLOUDY    71  69  93 NE7       29.94R
WINDOM         CLOUDY    70  66  88 E9        29.94R FOG
WORTHINGTON      N/A     72  12  10 E10       29.94S
$$

IAZ001>003-012>014-020>022-031-032-NEZ013-014-SDZ071-231600-
NORTHWEST IOWA

CITY           SKY/WX    TMP DP  RH WIND       PRES   REMARKS
CHEROKEE       CLOUDY    73  71  95 E10       29.92R
DENISON        CLOUDY    72  72 100 E9        29.88F
ESTHERVILLE    CLOUDY    70  69  97 E13       29.94R
LE MARS        CLOUDY    73  70  88 E6        29.91S
ORANGE CITY    CLOUDY    75  70  83 E7        29.92S
SHELDON        CLOUDY    72  70  94 E15G21    29.92R
SIOUX CITY     CLOUDY    74  69  85 E7        29.90S
SPENCER        CLOUDY    73  69  87 E13       29.93R
STORM LAKE     CLOUDY    70  70 100 SE14      29.93F
$$

ABBREVIATIONS USED IN REMARKS
   TC - TEMPERATURE IN CELSIUS
  WCI - WIND CHILL INDEX
   HX - HEAT INDEX
  VSB - VISIBILITY




USA.gov is the U.S. government's official web portal to all federal, state and local government web resources and services.